DW4847 Weather Reports


Display with metric or nautical units.
time (UTC)temp
F
wind
direction
speed
MPH
gust
MPH
rain 1hr
in
rain 24hr
in
rain mn
in
humidity
%
barometer
mb
20260504050534 34 273 0.0 1.0 0.00 0.00 0.00 80 1010.1
20260504045534 34 273 0.0 0.0 0.00 0.00 0.00 79 1009.9
20260504045029 34 273 0.0 0.0 0.00 0.00 0.00 79 1010.0
20260504044543 34 273 0.0 0.0 0.00 0.00 0.00 79 1010.1
20260504044029 34 273 0.0 0.0 0.00 0.00 0.00 79 1010.1
20260504043526 34 273 0.0 0.0 0.00 0.00 0.00 78 1010.2
20260504043030 34 273 0.0 0.0 0.00 0.00 0.00 78 1010.2
20260504042524 35 273 0.0 0.0 0.00 0.00 0.00 77 1010.2
20260504042030 35 273 0.0 0.0 0.00 0.00 0.00 76 1010.1
20260504041525 35 273 0.0 0.0 0.00 0.00 0.00 76 1010.1
20260504041040 35 273 0.0 0.0 0.00 0.00 0.00 76 1010.2
20260504040546 35 273 0.0 0.0 0.00 0.00 0.00 76 1010.1
20260504040038 35 273 0.0 0.0 0.00 0.00 0.00 75 1010.1
20260504035531 36 273 0.0 0.0 0.00 0.00 0.00 75 1010.0
20260504035040 36 273 0.0 0.0 0.00 0.00 0.00 74 1010.0
20260504034534 36 273 0.0 0.0 0.00 0.00 0.00 74 1009.9
20260504034027 36 275 0.0 0.0 0.00 0.00 0.00 74 1009.9
20260504033522 37 275 0.0 0.0 0.00 0.00 0.00 72 1009.9
20260504033028 37 275 0.0 0.0 0.00 0.00 0.00 72 1009.8
20260504032522 37 275 0.0 0.0 0.00 0.00 0.00 73 1009.8
20260504032037 37 275 0.0 0.0 0.00 0.00 0.00 72 1009.8
20260504031524 37 275 0.0 0.0 0.00 0.00 0.00 72 1009.7
20260504031038 38 275 0.0 0.0 0.00 0.00 0.00 71 1009.7
20260504030524 38 275 0.0 0.0 0.00 0.00 0.00 70 1009.6
20260504030054 38 275 0.0 0.0 0.00 0.00 0.00 70 1009.6
20260504025529 38 275 0.0 0.0 0.00 0.00 0.00 71 1009.6
20260504025044 38 275 0.0 0.0 0.00 0.00 0.00 70 1009.6
20260504024527 39 275 0.0 0.0 0.00 0.00 0.00 70 1009.6
20260504024042 39 275 0.0 0.0 0.00 0.00 0.00 69 1009.6
20260504023535 39 275 0.0 0.0 0.00 0.00 0.00 69 1009.6
20260504023042 39 275 0.0 0.0 0.00 0.00 0.00 68 1009.6
20260504022536 40 275 0.0 1.0 0.00 0.00 0.00 66 1009.6
20260504022051 40 275 0.0 1.0 0.00 0.00 0.00 65 1009.6
20260504021100 40 275 0.0 1.0 0.00 0.00 0.00 64 1009.6
20260504020526 41 275 0.0 1.0 0.00 0.00 0.00 63 1009.6
20260504020040 41 276 0.0 2.0 0.00 0.00 0.00 63 1009.5
20260504015551 41 276 0.0 2.0 0.00 0.00 0.00 61 1009.5
20260504015036 42 276 0.0 2.0 0.00 0.00 0.00 59 1009.4
20260504014530 42 276 0.0 2.0 0.00 0.00 0.00 59 1009.4
20260504014036 42 281 0.0 1.0 0.00 0.00 0.00 59 1009.3
20260504013531 43 281 0.0 2.0 0.00 0.00 0.00 58 1009.2
20260504013044 43 286 0.0 2.0 0.00 0.00 0.00 58 1009.1
20260504012530 44 286 0.0 1.0 0.00 0.00 0.00 56 1009.1
20260504012105 44 286 0.0 2.0 0.00 0.00 0.00 53 1009.1
20260504011554 45 286 0.0 2.0 0.00 0.00 0.00 52 1009.1
20260504011048 45 5 0.0 2.0 0.00 0.00 0.00 50 1009.0
20260504010554 45 36 0.0 3.0 0.00 0.00 0.00 51 1009.0
20260504010027 45 40 1.0 3.0 0.00 0.00 0.00 48 1008.9
20260504005542 46 217 0.0 2.0 0.00 0.00 0.00 47 1008.9
20260504005027 46 217 0.0 2.0 0.00 0.00 0.00 48 1008.8
20260504004541 46 255 0.0 5.0 0.00 0.00 0.00 46 1008.7
20260504004055 46 259 1.0 5.0 0.00 0.00 0.00 46 1008.6
20260504003609 46 300 1.0 4.0 0.00 0.00 0.00 45 1008.6
20260504003034 46 331 1.0 4.0 0.00 0.00 0.00 45 1008.5
20260504002527 46 228 1.0 3.0 0.00 0.00 0.00 45 1008.5
20260504002035 46 259 1.0 5.0 0.00 0.00 0.00 43 1008.3
20260504001529 47 248 3.0 7.0 0.00 0.00 0.00 42 1008.2
20260504001042 47 10 1.0 5.0 0.00 0.00 0.00 44 1008.1
20260504000527 47 298 3.0 7.0 0.00 0.00 0.00 42 1008.1
20260504000043 47 306 2.0 7.0 0.00 0.00 0.00 41 1008.1
20260503235528 47 321 3.0 5.0 0.00 0.00 0.00 40 1008.0
20260503235042 47 312 0.0 4.0 0.00 0.00 0.00 41 1008.0
20260503234529 47 319 2.0 8.0 0.00 0.00 0.00 40 1007.9
20260503234043 47 318 2.0 8.0 0.00 0.00 0.00 41 1007.9
20260503233538 48 258 1.0 7.0 0.00 0.00 0.00 38 1007.8
20260503233024 48 309 1.0 4.0 0.00 0.00 0.00 37 1007.9
20260503232536 48 261 0.0 10.0 0.00 0.00 0.00 39 1007.8
20260503232051 48 224 1.0 10.0 0.00 0.00 0.00 37 1007.8
20260503231537 48 292 2.0 6.0 0.00 0.00 0.00 36 1007.8
20260503231051 48 319 2.0 8.0 0.00 0.00 0.00 37 1007.7
20260503230537 48 306 3.0 8.0 0.00 0.00 0.00 36 1007.7
20260503230032 49 313 2.0 7.0 0.00 0.00 0.00 36 1007.7
20260503225602 49 321 2.0 7.0 0.00 0.00 0.00 35 1007.5
20260503225028 49 200 1.0 10.0 0.00 0.00 0.00 35 1007.7
20260503224602 49 312 3.0 10.0 0.00 0.00 0.00 35 1007.6
20260503224035 49 179 2.0 9.0 0.00 0.00 0.00 36 1007.7
20260503223549 49 229 4.0 9.0 0.00 0.00 0.00 35 1007.6
20260503223035 49 232 2.0 10.0 0.00 0.00 0.00 35 1007.5
20260503222549 49 355 5.0 10.0 0.00 0.00 0.00 35 1007.7
20260503222043 49 310 3.0 7.0 0.00 0.00 0.00 36 1007.5
20260503221527 49 211 2.0 9.0 0.00 0.00 0.00 36 1007.5
20260503221041 50 227 3.0 10.0 0.00 0.00 0.00 36 1007.5
20260503220528 50 317 4.0 10.0 0.00 0.00 0.00 35 1007.6
20260503220042 50 59 3.0 10.0 0.00 0.00 0.00 36 1007.6
20260503215528 50 355 3.0 10.0 0.00 0.00 0.00 36 1007.5
20260503215058 51 259 4.0 7.0 0.00 0.00 0.00 37 1007.4
20260503214531 51 345 2.0 5.0 0.00 0.00 0.00 38 1007.4
20260503214045 50 279 2.0 8.0 0.00 0.00 0.00 39 1007.4
20260503213530 50 331 4.0 10.0 0.00 0.00 0.00 38 1007.4
20260503213045 50 213 3.0 10.0 0.00 0.00 0.00 38 1007.3
20260503212559 50 259 3.0 10.0 0.00 0.00 0.00 39 1007.3
20260503212033 50 227 4.0 13.0 0.00 0.00 0.00 38 1007.3
20260503211548 50 298 6.0 13.0 0.00 0.00 0.00 38 1007.1
20260503211033 50 280 2.0 9.0 0.00 0.00 0.00 41 1007.3
20260503210548 50 304 2.0 9.0 0.00 0.00 0.00 41 1007.4
20260503205526 50 300 5.0 9.0 0.00 0.00 0.00 39 1007.4
20260503205038 51 190 5.0 9.0 0.00 0.00 0.00 39 1007.2
20260503204532 51 318 2.0 6.0 0.00 0.00 0.00 41 1007.4
20260503204035 50 241 2.0 7.0 0.00 0.00 0.00 41 1007.4
20260503203528 49 227 2.0 6.0 0.00 0.00 0.00 44 1007.6
20260503203040 49 303 2.0 8.0 0.00 0.00 0.00 43 1007.6
20260503202524 49 355 2.0 7.0 0.00 0.00 0.00 44 1007.6
20260503202035 48 244 4.0 11.0 0.00 0.00 0.00 43 1007.6
20260503201540 49 298 5.0 10.0 0.00 0.00 0.00 43 1007.5
20260503201032 48 314 3.0 10.0 0.00 0.00 0.00 45 1007.5
20260503200546 47 223 2.0 8.0 0.00 0.00 0.00 46 1007.6
20260503200030 47 343 2.0 10.0 0.00 0.00 0.00 44 1007.7
20260503195543 47 302 2.0 8.0 0.00 0.00 0.00 46 1007.8
20260503195037 47 294 4.0 14.0 0.00 0.00 0.00 45 1007.8
20260503194541 47 328 3.0 14.0 0.00 0.00 0.00 45 1007.9
20260503194034 47 265 3.0 9.0 0.00 0.00 0.00 45 1007.9
20260503193548 47 329 2.0 9.0 0.00 0.00 0.00 46 1007.8
20260503193034 47 329 2.0 10.0 0.00 0.00 0.00 47 1007.8
20260503192528 47 202 4.0 12.0 0.00 0.00 0.00 45 1007.9
20260503192033 47 292 5.0 12.0 0.00 0.00 0.00 44 1007.8
20260503191528 47 325 4.0 12.0 0.00 0.00 0.00 46 1007.8
20260503191101 47 194 4.0 11.0 0.00 0.00 0.00 45 1007.8
20260503190527 47 303 3.0 13.0 0.00 0.00 0.00 46 1007.8
20260503190058 47 355 5.0 13.0 0.00 0.00 0.00 45 1007.8
20260503185524 47 291 3.0 9.0 0.00 0.00 0.00 46 1007.7
20260503185039 47 225 4.0 9.0 0.00 0.00 0.00 45 1007.8
20260503184609 47 346 3.0 11.0 0.00 0.00 0.00 45 1007.8
20260503184034 47 244 2.0 13.0 0.00 0.00 0.00 45 1007.9
20260503183527 47 303 2.0 13.0 0.00 0.00 0.00 48 1007.7
20260503183101 46 334 3.0 10.0 0.00 0.00 0.00 45 1007.9
20260503182526 46 337 3.0 10.0 0.00 0.00 0.00 45 1007.9
20260503182040 46 344 4.0 10.0 0.00 0.00 0.00 45 1007.7
20260503181525 47 332 5.0 10.0 0.00 0.00 0.00 44 1007.8
20260503181040 47 325 4.0 10.0 0.00 0.00 0.00 43 1007.8
20260503180534 47 346 4.0 9.0 0.00 0.00 0.00 45 1007.7
20260503180039 46 222 3.0 13.0 0.00 0.00 0.00 46 1007.7
20260503175533 46 304 3.0 13.0 0.00 0.00 0.00 46 1007.8
20260503175046 46 306 5.0 11.0 0.00 0.00 0.00 45 1007.8
20260503174529 47 355 2.0 7.0 0.00 0.00 0.00 48 1007.8
20260503174042 46 237 2.0 7.0 0.00 0.00 0.00 49 1007.8
20260503173528 46 304 3.0 10.0 0.00 0.00 0.00 47 1007.7
20260503173101 46 346 3.0 15.0 0.00 0.00 0.00 47 1007.7
20260503172534 47 132 4.0 15.0 0.00 0.00 0.00 45 1007.6
20260503172046 46 232 5.0 12.0 0.00 0.00 0.00 46 1007.7
20260503171551 46 5 5.0 12.0 0.00 0.00 0.00 46 1007.6
20260503171024 46 5 4.0 10.0 0.00 0.00 0.00 45 1007.8
20260503170525 46 332 3.0 10.0 0.00 0.00 0.00 44 1007.8
20260503150538 44 329 2.0 9.0 0.00 0.01 0.00 63 1008.1
20260503131102 42 236 4.0 11.0 0.00 0.02 0.00 69 1008.6
20260503130526 42 326 3.0 8.0 0.00 0.02 0.00 71 1008.6
20260503110544 34 292 1.0 3.0 0.00 0.03 0.00 83 1008.5
20260503081527 33 242 0.0 1.0 0.00 0.16 0.00 81 1008.7
20260503081024 33 242 0.0 1.0 0.00 0.16 0.00 81 1008.8
20260503080558 33 242 0.0 2.0 0.00 0.16 0.00 81 1008.8
20260503072536 34 244 0.0 2.0 0.00 0.20 0.00 77 1008.8
20260503072049 35 244 0.0 2.0 0.00 0.20 0.00 77 1008.8
20260503071533 35 244 0.0 2.0 0.00 0.20 0.00 76 1008.8
20260503071028 35 244 0.0 4.0 0.00 0.20 0.00 76 1008.8
20260503070530 35 230 1.0 4.0 0.00 0.20 0.00 75 1008.8